Probability
0 0 0 0 0 0 0 0 0 0 0 0 0 0 0 0 0 0 0 0 0 0 0 1 8 14 11 4 1 0 0 0 0 0 0 0 0 0 0 0 0 0 0 0 0 0 0 0 0
0 0 0 0 0 0 0 0 0 0 0 0 0 0 0 0 0 0 0 0 0 0 0 1 12 27 30 25 21 16 9 3 1 0 0 0 0 0 0 0 0 0 0 0 0 0 0 0 0
0 0 0 0 0 0 0 0 0 0 0 0 0 0 0 0 0 0 0 0 0 0 0 1 9 23 37 45 48 45 38 28 19 11 4 0 0 0 0 0 0 0 0 0 0 0 0 0 0
0 0 0 0 0 0 0 0 0 0 0 0 0 0 0 0 0 0 0 0 0 0 0 0 2 7 17 29 39 47 52 52 47 38 29 22 15 8 4 3 2 2 2 1 0 0 0 0 0
0 0 0 0 0 0 0 0 0 0 0 0 0 0 0 0 0 0 0 0 0 0 0 0 0 0 1 5 11 19 28 38 44 47 52 55 50 39 29 23 17 15 13 10 5 2 0 0 1
0 0 0 0 0 0 0 0 0 0 0 0 0 0 0 0 0 0 0 0 0 0 0 0 0 0 0 0 0 1 4 9 16 24 35 51 65 70 66 59 53 47 42 32 20 12 7 5 6
0 0 0 0 0 0 0 0 0 0 0 0 0 0 0 0 0 0 0 0 0 0 0 0 0 0 0 0 0 0 0 0 1 3 7 19 38 58 70 76 80 81 75 60 45 33 27 27 27
0 0 0 0 0 0 0 0 0 0 0 0 0 0 0 0 0 0 0 0 0 0 0 0 0 0 0 0 0 0 0 0 0 0 0 2 9 22 36 51 67 83 90 84 71 61 59 63 64
0 0 0 0 0 0 0 0 0 0 0 0 0 0 0 0 0 0 0 0 0 0 0 0 0 0 0 0 0 0 0 0 0 0 0 0 1 3 8 16 30 51 74 86 85 80 79 77 72
0 0 0 0 0 0 0 0 0 0 0 0 0 0 0 0 0 0 0 0 0 0 0 0 0 0 0 0 0 0 0 0 0 0 0 0 0 0 0 1 5 17 37 57 70 74 70 58 46
0 0 0 0 0 0 0 0 0 0 0 0 0 0 0 0 0 0 0 0 0 0 0 0 0 0 0 0 0 0 0 0 0 0 0 0 0 0 0 0 0 2 9 21 36 45 39 30 28
0 0 0 0 0 0 0 0 0 0 0 0 0 0 0 0 0 0 0 0 0 0 0 0 0 0 0 0 0 0 0 0 0 0 0 0 0 0 0 0 0 0 0 3 10 16 14 13 15
0 0 0 0 0 0 0 0 0 0 0 0 0 0 0 0 0 0 0 0 0 0 0 0 0 0 0 0 0 0 0 0 0 0 0 0 0 0 0 0 0 0 0 0 1 3 3 4 4
0 0 0 0 0 0 0 0 0 0 0 0 0 0 0 0 0 0 0 0 0 0 0 0 0 0 0 0 0 0 0 0 0 0 0 0 0 0 0 0 0 0 0 0 0 0 1 1 1
0 0 0 0 0 0 0 0 0 0 0 0 0 0 0 0 0 0 0 0 0 0 0 0 0 0 0 0 0 0 0 0 0 0 0 0 0 0 0 0 0 0 0 0 0 0 0 0 1
0 0 0 0 0 0 0 0 0 0 0 0 0 0 0 0 0 0 0 0 0 0 0 0 0 0 0 0 0 0 0 0 0 0 0 0 0 0 0 0 0 0 0 0 0 0 0 0 0
0 0 0 0 0 0 0 0 0 0 0 0 0 0 0 0 0 0 0 0 0 0 0 0 0 0 0 0 0 0 0 0 0 0 0 0 0 0 0 0 0 0 0 0 0 0 0 0 0
0 0 0 0 0 0 0 0 0 0 0 0 0 0 0 0 0 0 0 0 0 0 0 0 0 0 0 0 0 0 0 0 0 0 0 0 0 0 0 0 0 0 0 0 0 0 0 0 0
0 0 0 0 0 0 0 0 0 0 0 0 0 0 0 0 0 0 0 0 0 0 0 0 0 0 0 0 0 0 0 0 0 0 0 0 0 0 0 0 0 0 0 0 0 0 0 0 0
0 0 0 0 0 0 0 0 0 0 0 0 0 0 0 0 0 0 0 0 0 0 0 0 0 0 0 0 0 0 0 0 0 0 0 0 0 0 0 0 0 0 0 0 0 0 0 0 0
0 0 0 0 0 0 0 0 0 0 0 0 0 0 0 0 0 0 0 0 0 0 0 0 0 0 0 0 0 0 0 0 0 0 0 0 0 0 0 0 0 0 0 0 0 0 0 0 0
0 0 0 0 0 0 0 0 0 0 0 0 0 0 0 0 0 0 0 0 0 0 0 0 0 0 0 0 0 0 0 0 0 0 0 0 0 0 0 0 0 0 0 0 0 0 0 0 0
0 0 0 0 0 0 0 0 0 0 0 0 0 0 0 0 0 0 0 0 0 0 0 0 0 0 0 0 0 0 0 0 0 0 0 0 0 0 0 0 0 0 0 0 0 0 0 0 0
0 0 0 0 0 0 0 0 0 0 0 0 0 0 0 0 0 0 0 0 0 0 0 0 0 0 0 0 0 0 0 0 0 0 0 0 0 0 0 0 0 0 0 0 0 0 0 0 0
0 0 0 0 0 0 0 0 0 0 0 0 0 0 0 0 0 0 0 0 0 0 0 0 0 0 0 0 0 0 0 0 0 0 0 0 0 0 0 0 0 0 0 0 0 0 0 0 0
0 0 0 0 0 0 0 0 0 0 0 0 0 0 0 0 0 0 0 0 0 0 0 0 0 0 0 0 0 0 0 0 0 0 0 0 0 0 0 0 0 0 0 0 0 0 0 0 0
0 0 0 0 0 0 0 0 0 0 0 0 0 0 0 0 0 0 0 0 0 0 0 0 0 0 0 0 0 0 0 0 0 0 0 0 0 0 0 0 0 0 0 0 0 0 0 0 0
0 0 0 0 0 0 0 0 0 0 0 0 0 0 0 0 0 0 0 0 0 0 0 0 0 0 0 0 0 0 0 0 0 0 0 0 0 0 0 0 0 0 0 0 0 0 0 0 0
0 0 0 0 0 0 0 0 0 0 0 0 0 0 0 0 0 0 0 0 0 0 0 0 0 0 0 0 0 0 0 0 0 0 0 0 0 0 0 0 0 0 0 0 0 0 0 0 0
0 0 0 0 0 0 0 0 0 0 0 0 0 0 0 0 0 0 0 0 0 0 0 0 0 0 0 0 0 0 0 0 0 0 0 0 0 0 0 0 0 0 0 0 0 0 0 0 0
Wind_Speed
8 5 3 3 4 11 15 10 10 13 14 16 17 17 18 17 12 10 15 25 25 19 18 19 19 15 13 12 12 11 11 11 11 11 11 11 11 10 10 9 9 8 8 8 8 9 8 7 7
6 4 3 1 10 15 13 10 13 13 9 8 14 17 17 17 13 11 16 22 20 19 19 22 27 24 19 16 14 13 12 12 11 11 11 11 11 11 11 11 10 10 10 9 10 10 10 8 7
2 3 1 6 14 13 11 10 9 13 19 12 12 14 13 12 11 12 17 19 15 17 18 23 28 30 29 26 22 19 17 16 13 12 12 12 12 12 12 12 11 11 11 10 9 9 10 9 8
3 1 5 14 21 15 13 14 9 7 15 17 12 14 12 11 10 13 15 15 17 19 19 24 30 30 30 30 29 28 26 23 20 17 15 15 14 13 13 13 12 11 11 11 9 8 8 8 8
1 5 13 17 17 15 18 19 19 15 11 15 16 14 11 12 12 12 13 17 21 21 21 24 30 30 30 30 29 29 28 28 27 25 22 19 16 15 14 13 12 11 11 11 9 7 6 5 6
2 4 12 15 15 12 14 19 14 22 15 12 11 11 11 13 13 14 17 19 21 22 22 22 28 28 29 30 30 29 28 27 27 27 26 25 21 18 16 13 13 11 11 10 8 7 7 6 5
6 7 12 14 12 10 9 11 20 14 18 15 8 8 8 17 14 14 16 18 21 22 22 21 22 22 24 26 28 28 28 28 27 27 27 24 23 22 19 16 15 14 12 9 9 9 8 8 6
4 7 10 9 9 8 6 8 13 18 17 14 13 10 9 16 13 13 14 18 21 22 22 22 21 21 19 18 23 24 25 27 26 26 26 24 21 21 20 18 18 17 14 12 10 10 10 9 8
3 8 9 6 8 9 7 9 12 16 19 21 19 17 12 11 13 15 18 21 22 23 22 21 22 21 20 17 18 19 19 22 22 21 25 20 15 15 15 18 20 19 17 14 13 12 11 10 9
7 7 9 8 10 15 15 15 11 12 17 17 17 16 14 14 17 21 23 23 23 23 22 20 21 21 20 16 15 13 13 14 15 15 18 14 14 13 15 16 18 19 18 15 12 12 11 11 8
10 10 11 14 17 17 15 16 13 9 14 15 14 14 15 18 20 21 21 20 20 20 21 21 20 20 19 14 13 10 9 10 12 16 17 14 12 12 12 10 11 12 13 11 12 10 8 9 7
13 13 11 11 11 12 13 12 15 17 12 11 12 13 16 19 20 20 20 19 19 19 21 21 20 18 18 16 12 12 10 10 11 13 16 13 10 11 12 10 12 11 8 10 9 8 10 10 11
14 15 22 24 26 23 23 20 18 15 11 11 12 14 17 18 18 17 17 18 19 20 21 21 21 20 18 15 12 12 12 12 13 11 13 15 12 12 12 10 10 12 11 11 11 10 11 11 10
17 21 18 16 16 14 18 14 10 11 9 11 13 15 16 17 18 18 19 19 20 20 20 20 20 20 19 15 14 13 12 12 12 12 14 16 13 13 12 12 11 11 12 12 12 13 11 10 9
22 20 15 9 10 9 10 13 10 7 8 12 13 13 15 15 16 17 18 18 18 19 19 19 19 20 19 17 16 13 12 13 12 12 14 16 16 15 14 12 11 11 12 14 12 14 11 10 10
9 9 8 6 4 2 2 8 7 5 8 12 12 12 13 14 15 15 16 17 18 18 19 19 16 19 19 17 16 13 13 13 11 11 12 16 16 16 14 12 11 12 12 11 11 11 11 11 10
6 4 7 6 5 2 4 9 8 5 8 11 11 12 12 13 15 15 17 18 19 19 19 20 20 20 19 18 15 14 13 13 12 11 11 14 15 16 14 11 11 14 11 10 11 11 11 12 12
4 4 5 4 4 4 8 13 10 6 8 10 11 11 12 14 15 15 16 18 19 18 19 20 19 19 18 14 13 12 13 12 11 11 13 16 14 16 14 11 14 14 11 11 11 13 12 12 12
4 5 6 4 4 5 11 13 9 6 6 9 10 11 13 14 14 14 15 17 18 18 19 20 20 19 16 14 14 14 14 13 12 12 16 17 16 16 14 11 13 13 12 14 14 13 14 12 11
6 6 5 6 5 4 10 9 7 5 6 7 9 10 12 14 15 15 15 15 17 17 18 18 19 18 17 14 14 13 14 12 12 12 14 16 18 17 13 14 12 13 13 15 14 14 11 11 9
3 1 3 7 6 5 8 9 9 6 3 3 5 7 11 13 15 14 14 16 16 16 17 16 18 18 17 17 13 13 12 11 11 14 12 15 18 18 16 15 14 14 13 12 15 14 14 11 11
2 3 2 9 8 5 8 5 11 8 3 2 5 9 11 13 14 14 14 16 17 16 15 17 17 17 17 17 15 17 14 14 16 14 13 17 17 17 17 16 16 15 13 14 14 14 12 13 11
5 3 3 8 5 3 7 7 7 8 5 2 7 10 12 12 13 14 14 14 15 16 15 15 17 17 17 17 17 16 15 14 13 15 17 16 15 16 17 17 16 15 13 15 16 15 14 11 11
3 3 5 5 5 6 4 7 4 6 2 4 8 11 13 12 13 13 12 13 14 14 14 15 17 17 17 18 18 18 18 18 18 18 17 15 13 14 17 17 16 16 14 15 16 15 16 13 13
4 5 4 3 5 1 3 6 1 8 3 5 9 12 13 12 12 12 13 14 14 16 15 15 17 17 18 18 18 18 18 19 18 18 17 17 14 14 17 17 16 16 16 17 16 15 15 15 15
6 7 6 7 8 4 4 4 6 6 2 5 8 11 12 12 12 12 13 13 14 15 15 16 17 17 18 18 18 17 18 14 13 17 16 16 14 15 18 18 18 18 18 17 15 13 15 13 14
2 2 4 5 5 8 5 4 6 4 0 6 10 12 13 12 11 12 12 12 14 15 16 16 17 17 17 17 18 17 17 16 16 17 16 14 15 16 19 18 18 17 17 17 16 12 14 14 14
4 1 3 5 8 9 7 4 3 6 3 8 12 13 13 11 10 12 11 12 13 14 15 15 16 16 16 17 16 14 16 16 17 16 17 18 19 19 19 19 18 18 17 16 15 14 14 15 14
1 1 1 2 5 7 10 4 7 4 4 9 12 13 13 11 11 12 12 12 13 14 14 15 15 16 16 16 16 16 16 16 17 16 17 18 18 19 19 19 18 18 17 16 14 15 15 15 14
1 0 2 5 5 6 8 2 10 4 4 8 12 13 12 10 11 12 12 12 13 14 14 15 15 15 15 16 16 16 16 16 17 17 18 18 19 18 18 18 18 18 18 17 16 15 15 15 15
Wind_Direction
320 316 277 239 142 92 82 66 76 72 67 60 64 69 67 49 29 50 355 349 349 0 7 9 4 353 348 346 344 342 340 334 333 336 335 331 329 327 326 327 326 319 311 301 290 284 279 269 263
323 302 253 266 108 98 81 65 62 48 35 90 65 61 60 48 24 14 348 339 350 9 15 16 18 15 5 353 344 339 333 326 320 320 319 317 315 314 315 314 315 316 315 307 291 281 276 267 258
294 294 48 73 78 78 73 42 51 73 49 52 71 52 47 22 9 354 341 339 358 20 21 20 24 25 24 20 11 359 347 335 325 317 312 309 306 303 305 304 303 307 306 304 295 282 273 266 256
264 161 81 88 79 55 40 23 19 85 51 28 77 70 72 26 2 345 341 354 18 28 27 27 27 28 27 25 23 21 15 6 352 335 323 316 310 306 305 305 299 299 298 294 291 286 278 267 254
276 85 92 89 83 69 48 32 43 49 56 31 68 82 70 22 8 359 6 17 26 28 27 28 28 28 28 26 25 23 21 19 15 8 356 341 325 317 314 312 305 297 296 286 280 282 283 277 261
82 93 98 90 91 78 56 30 38 48 53 35 60 84 65 17 9 12 18 25 29 28 25 25 25 25 25 25 24 24 22 20 18 15 9 2 352 340 328 319 318 304 295 287 274 273 277 277 269
80 76 92 100 91 64 38 44 35 44 45 34 17 79 68 19 10 17 25 28 31 28 26 22 20 19 19 22 20 19 19 18 17 16 11 5 1 356 348 336 328 320 304 290 280 273 270 270 266
43 97 97 86 84 71 56 65 50 43 49 38 35 58 36 12 17 26 33 33 31 27 24 19 16 15 12 14 17 15 16 14 12 13 9 5 1 359 353 352 347 334 321 305 291 281 278 275 268
40 90 82 76 104 103 92 90 73 66 71 64 60 60 47 29 29 32 32 30 26 24 20 16 13 10 6 6 8 10 12 12 8 8 4 1 359 358 351 353 348 345 337 320 300 285 281 279 257
52 81 60 44 100 105 82 79 97 76 60 60 59 56 47 39 35 35 31 25 21 18 14 13 11 7 3 360 359 1 4 6 7 6 3 358 354 350 349 342 348 346 341 327 309 293 272 260 252
58 71 88 77 94 105 94 72 63 95 60 50 50 47 40 38 37 34 30 25 19 14 13 10 9 6 3 357 355 354 353 356 358 2 1 356 354 349 348 342 344 342 341 339 328 308 283 270 266
81 56 92 92 89 93 93 91 71 65 77 70 61 52 45 40 36 30 25 20 15 13 11 8 6 5 2 358 353 351 350 350 350 355 357 355 351 348 346 339 338 337 338 333 327 314 300 284 271
90 87 83 91 90 88 90 89 87 78 80 77 68 57 48 42 36 32 24 18 14 11 7 5 2 2 358 355 352 351 349 348 343 347 351 353 347 344 341 335 336 334 335 330 324 315 308 297 283
110 112 108 101 96 86 88 85 78 75 83 77 65 55 48 41 33 27 20 14 11 6 3 1 360 359 355 354 351 347 346 344 341 344 346 349 345 341 336 331 331 332 333 328 319 313 307 295 287
121 115 113 114 111 127 97 73 72 78 87 74 62 54 47 39 33 27 19 12 6 2 359 359 356 355 354 353 350 345 342 340 339 341 342 348 345 341 335 329 327 333 329 323 320 316 310 299 290
147 144 118 85 88 117 165 104 90 78 83 70 59 50 44 38 31 25 19 12 6 2 0 358 357 353 353 352 347 344 342 340 338 339 342 347 344 344 335 329 330 333 326 322 321 318 316 307 294
194 167 124 113 48 120 133 129 118 92 83 71 58 46 37 31 26 21 16 11 5 3 359 357 356 354 351 349 346 344 342 340 338 340 343 342 341 341 336 329 332 332 327 325 323 322 317 309 300
156 144 131 132 80 112 126 128 124 100 78 69 55 42 32 26 21 14 11 8 3 0 358 355 353 352 350 349 345 343 341 340 337 339 340 338 336 337 334 330 332 332 327 328 326 321 318 308 299
97 129 131 114 111 109 129 134 129 118 84 62 45 33 23 18 13 11 6 4 359 358 358 355 352 350 350 351 347 342 340 338 336 338 336 334 334 333 331 330 330 330 327 324 322 325 319 315 313
123 133 130 116 118 124 144 145 141 125 79 51 33 22 14 6 2 2 360 0 357 357 357 354 352 348 349 350 342 337 331 331 334 335 333 333 332 330 329 329 328 327 323 320 322 322 315 310 314
138 285 213 159 129 139 161 183 185 159 127 66 26 10 8 4 355 353 354 358 357 357 356 352 351 348 348 347 341 337 333 332 336 336 333 332 329 326 325 325 325 323 321 317 316 313 309 307 304
241 358 247 164 178 171 212 258 172 181 181 34 11 3 358 356 352 352 354 356 355 354 352 350 349 348 348 347 344 342 338 337 335 332 328 328 327 325 322 323 324 321 318 313 310 307 301 296 292
349 2 184 187 214 194 202 263 139 178 222 346 3 356 352 350 351 351 354 353 352 351 350 349 348 348 349 348 346 341 338 335 330 330 328 329 327 325 324 324 323 320 316 310 305 301 293 285 280
313 156 125 166 215 249 183 232 162 175 201 352 355 350 349 350 349 348 349 351 351 351 350 349 348 349 349 347 346 343 339 336 333 334 332 330 326 325 326 325 322 317 313 310 306 299 291 282 274
357 299 268 242 229 263 130 235 105 129 96 6 347 345 347 349 347 345 348 350 351 350 350 349 348 347 348 346 346 342 340 336 333 333 330 329 326 326 326 325 319 316 314 310 308 305 296 286 276
11 346 352 317 315 316 197 252 131 146 88 0 348 343 346 347 348 345 347 349 349 349 349 349 347 345 346 345 343 341 341 336 331 330 328 326 324 323 322 321 318 316 315 313 313 312 306 297 288
326 40 354 286 275 271 245 146 155 183 310 349 346 348 353 346 344 343 347 349 349 348 348 347 344 342 343 342 341 340 340 337 333 329 328 326 324 322 324 321 320 318 318 316 316 318 317 311 299
32 81 254 297 316 304 292 249 181 163 344 347 349 352 350 347 345 346 349 350 349 347 345 345 343 341 340 340 340 337 338 336 333 330 330 329 327 326 326 326 323 322 323 321 318 322 325 320 312
143 138 41 296 293 297 307 1 97 104 11 350 351 355 350 349 349 348 349 348 346 344 344 344 343 341 340 340 339 338 338 337 335 334 332 330 329 329 330 329 326 327 328 326 321 328 332 332 328
297 261 256 296 292 258 283 335 121 86 11 353 352 356 355 352 348 346 347 345 343 343 343 342 341 340 339 338 337 337 338 338 338 337 334 333 332 333 332 331 330 332 332 329 323 333 340 340 340